Location: Garos
(43.5000°N, 0.4667°W)
Time: 04:49:27
(UTC+00:00)

Cosmos 1844 Rocket - Pass Details

Date: 03 February 2023
Orbit: 825 x 843 km, 71.0° (Epoch: 26 March)

Event Time Altitude Azimuth Distance (km) Brightness Sun altitude
Rises 19:25:26 0° 328° (NNW) 3,372 6.3 -23.8°
Reaches altitude 10° 19:28:00 10° 321° (NW) 2,434 5.6 -24.2°
Maximum altitude 19:33:08 39° 254° (WSW) 1,213 3.9 -25.2°
Drops below altitude 10° 19:38:15 10° 186° (S) 2,421 5.1 -26.1°
Sets 19:40:48 0° 179° (S) 3,351 5.8 -26.6°
